DW2485 Weather Reports


time (UTC)temp
C
wind
direction
speed
KPH
gust
KPH
rain 1hr
cm
rain 24hr
cm
rain mn
cm
humidity
%
barometer
mb
20260903204505 35 202 8.0 16.1 0.00 0.00 0.00 56 1013.5
20260903204005 35 233 8.0 14.5 0.00 0.00 0.00 56 1013.3
20260903203005 33 187 3.2 9.7 0.00 0.00 0.00 59 1013.4
20260903202005 33 221 9.7 14.5 0.00 0.00 0.00 57 1013.4
20260903201505 35 205 8.0 14.5 0.00 0.00 0.00 56 1013.4
20260903201005 35 184 9.7 19.3 0.00 0.00 0.00 55 1013.3
20260903200505 35 173 3.2 8.0 0.00 0.00 0.00 57 1013.3
20260903200005 35 211 4.8 16.1 0.00 0.00 0.00 56 1013.3
20260903195505 35 218 8.0 16.1 0.00 0.00 0.00 55 1013.3
20260903194005 35 179 8.0 12.9 0.00 0.00 0.00 56 1013.7
20260903193005 35 217 9.7 16.1 0.00 0.00 0.00 54 1013.5
20260903192005 34 180 12.9 20.9 0.00 0.00 0.00 55 1013.7
20260903191504 34 185 8.0 19.3 0.00 0.00 0.00 56 1013.9
20260903190504 34 171 8.0 12.9 0.00 0.00 0.00 57 1014.0
20260903190005 34 192 11.3 16.1 0.00 0.00 0.00 57 1014.0
20260903185005 34 181 9.7 12.9 0.00 0.00 0.00 59 1013.9
20260903184505 34 170 11.3 16.1 0.00 0.00 0.00 58 1013.8
20260903184005 34 141 8.0 12.9 0.00 0.00 0.00 59 1013.9
20260903183006 34 191 6.4 11.3 0.00 0.00 0.00 60 1014.0
20260903181505 32 214 1.6 3.2 0.00 0.00 0.00 62 1014.2
20260903180004 33 173 4.8 9.7 0.00 0.00 0.00 64 1014.3
20260903174505 31 158 4.8 9.7 0.00 0.00 0.00 68 1014.6
20260903172504 31 161 4.8 8.0 0.00 0.00 0.00 64 1014.7
20260903172005 31 123 4.8 9.7 0.00 0.00 0.00 64 1014.6
20260903170505 30 139 4.8 9.7 0.00 0.00 0.00 67 1014.6
20260903165004 31 154 8.0 11.3 0.00 0.00 0.00 67 1014.8
20260903164004 31 174 4.8 8.0 0.00 0.00 0.00 65 1014.8
20260903163005 31 192 8.0 12.9 0.00 0.00 0.00 68 1014.9
20260903162504 31 182 3.2 8.0 0.00 0.00 0.00 66 1014.9
20260903155505 30 122 4.8 9.7 0.00 0.00 0.00 71 1015.0
20260903155004 29 109 4.8 11.3 0.00 0.00 0.00 68 1015.1
20260903154005 30 74 4.8 9.7 0.00 0.00 0.00 66 1014.9
20260903153505 30 76 8.0 11.3 0.00 0.00 0.00 66 1015.0
20260903152504 30 82 4.8 4.8 0.00 0.00 0.00 68 1014.9
20260903152004 30 2 4.8 9.7 0.00 0.00 0.00 65 1014.9
20260903151504 30 19 4.8 8.0 0.00 0.00 0.00 69 1014.9
20260903150005 30 58 3.2 8.0 0.00 0.00 0.00 72 1014.9
20260903143505 28 329 4.8 8.0 0.00 0.00 0.00 74 1014.8
20260903142004 28 3 3.2 4.8 0.00 0.00 0.00 76 1014.9
20260903140004 26 355 0.0 3.2 0.00 0.00 0.00 81 1014.9
20260903135505 26 355 0.0 3.2 0.00 0.00 0.00 82 1015.0
20260903135005 26 355 0.0 3.2 0.00 0.00 0.00 82 1015.1
20260903134504 26 19 1.6 3.2 0.00 0.00 0.00 83 1015.1
20260903132504 24 311 8.0 16.1 0.00 0.00 0.00 88 1015.6
20260903132005 24 316 8.0 19.3 0.00 0.00 0.00 87 1015.6
20260903131005 24 279 8.0 32.2 0.00 0.00 0.00 87 1015.1
20260903130505 24 333 20.9 32.2 0.00 0.00 0.00 88 1015.6
20260903125506 23 169 1.6 3.2 0.00 0.00 0.00 89 1014.6
20260903124005 23 140 1.6 3.2 0.00 0.00 0.00 91 1014.5
20260903123004 22 124 3.2 3.2 0.00 0.00 0.00 92 1014.4
20260903121004 22 111 3.2 3.2 0.00 0.00 0.00 93 1014.4
20260903120504 22 110 3.2 3.2 0.00 0.00 0.00 94 1014.3
20260903120004 22 111 3.2 3.2 0.00 0.00 0.00 94 1014.3
20260903115504 22 111 1.6 3.2 0.00 0.00 0.00 94 1014.2
20260903114004 21 117 4.8 4.8 0.00 0.00 0.00 93 1014.0
20260903113005 21 122 3.2 4.8 0.00 0.00 0.00 93 1013.9
20260903112504 22 122 3.2 3.2 0.00 0.00 0.00 93 1013.8
20260903112004 21 124 3.2 4.8 0.00 0.00 0.00 93 1013.8
20260903111504 21 128 3.2 3.2 0.00 0.00 0.00 93 1013.8
20260903111004 22 128 1.6 3.2 0.00 0.00 0.00 93 1013.7
20260903105504 22 128 3.2 3.2 0.00 0.00 0.00 93 1013.8
20260903104504 22 128 3.2 3.2 0.00 0.00 0.00 92 1013.7
20260903104005 22 128 3.2 4.8 0.00 0.00 0.00 93 1013.7
20260903102504 22 128 3.2 3.2 0.00 0.00 0.00 93 1013.7
20260903101504 22 121 3.2 3.2 0.00 0.00 0.00 92 1013.9
20260903101004 22 132 3.2 4.8 0.00 0.00 0.00 92 1013.9
20260903100004 22 140 3.2 4.8 0.00 0.00 0.00 93 1013.9
20260903095504 22 138 3.2 4.8 0.00 0.00 0.00 93 1013.9
20260903092004 22 121 3.2 3.2 0.00 0.00 0.00 92 1013.9
20260903091004 22 132 3.2 4.8 0.00 0.00 0.00 92 1014.0
20260903085504 22 138 3.2 4.8 0.00 0.00 0.00 92 1014.0
20260903085005 22 134 3.2 4.8 0.00 0.00 0.00 93 1014.1
20260903084504 22 134 3.2 4.8 0.00 0.00 0.00 93 1014.0
20260903084004 22 125 3.2 4.8 0.00 0.00 0.00 93 1014.0
20260903083505 22 121 3.2 4.8 0.00 0.00 0.00 93 1013.8
20260903081504 22 114 3.2 4.8 0.00 0.00 0.00 93 1013.8
20260903081004 22 123 3.2 3.2 0.00 0.00 0.00 92 1013.8
20260903080504 23 123 1.6 3.2 0.00 0.00 0.00 92 1013.8
20260903074504 23 108 4.8 4.8 0.00 0.00 0.00 92 1013.8
20260903074004 23 114 4.8 4.8 0.00 0.00 0.00 92 1013.6
20260903072504 23 120 3.2 4.8 0.00 0.00 0.00 92 1013.7
20260903072004 23 127 4.8 4.8 0.00 0.00 0.00 92 1013.7
20260903070504 23 132 3.2 4.8 0.00 0.00 0.00 92 1013.9
20260903065004 23 129 3.2 4.8 0.00 0.00 0.00 92 1013.9
20260903064004 23 121 1.6 3.2 0.00 0.00 0.00 93 1013.9
20260903063004 23 121 3.2 3.2 0.00 0.00 0.00 92 1014.0
20260903062504 23 121 3.2 4.8 0.00 0.00 0.00 92 1014.0
20260903061504 23 127 3.2 4.8 0.00 0.00 0.00 92 1014.1
20260903060503 23 128 3.2 3.2 0.00 0.00 0.00 90 1014.1
20260903055004 24 128 4.8 4.8 0.00 0.00 0.00 90 1014.0
20260903053504 25 118 3.2 4.8 0.00 0.00 0.00 89 1014.0
20260903051503 25 128 4.8 4.8 0.00 0.00 0.00 88 1013.9
20260903050504 25 126 3.2 4.8 0.00 0.00 0.00 88 1013.9
20260903045003 25 121 3.2 4.8 0.00 0.00 0.00 88 1013.9
20260903043504 25 95 4.8 4.8 0.00 0.00 0.00 88 1013.9
20260903043006 25 91 4.8 4.8 0.00 0.00 0.00 88 1013.9
20260903042006 25 99 4.8 8.0 0.00 0.00 0.00 87 1013.8
20260903041506 25 108 3.2 4.8 0.00 0.00 0.00 87 1013.8
20260903041006 25 98 4.8 4.8 0.00 0.00 0.00 87 1013.9
20260903040008 25 104 6.4 9.7 0.00 0.00 0.00 87 1013.9
20260903035506 25 95 6.4 9.7 0.00 0.00 0.00 87 1013.9
20260903035006 25 96 4.8 4.8 0.00 0.00 0.00 87 1014.0
20260903034006 26 114 3.2 4.8 0.00 0.00 0.00 84 1013.9
20260903031505 27 157 4.8 9.7 0.00 0.00 0.00 81 1013.9
20260903031005 27 172 9.7 14.5 0.00 0.00 0.00 82 1013.9
20260903025506 26 342 1.6 3.2 0.00 0.00 0.00 85 1014.0
20260903025006 26 355 3.2 3.2 0.00 0.00 0.00 85 1014.0
20260903024505 26 355 3.2 4.8 0.00 0.00 0.00 85 1014.1
20260903024005 26 353 4.8 4.8 0.00 0.00 0.00 85 1014.2
20260903022506 27 313 3.2 4.8 0.00 0.00 0.00 84 1013.9
20260903022006 27 309 1.6 3.2 0.00 0.00 0.00 82 1013.9
20260903021506 27 254 1.6 4.8 0.00 0.00 0.00 81 1013.8
20260903020506 28 201 6.4 11.3 0.00 0.00 0.00 80 1013.5
20260903012506 27 173 8.0 14.5 0.00 0.00 0.00 84 1012.8
20260903012006 27 172 4.8 8.0 0.00 0.00 0.00 85 1012.8
20260903011506 27 173 4.8 11.3 0.00 0.00 0.00 85 1012.7
20260903011006 27 174 4.8 8.0 0.00 0.00 0.00 85 1012.7
20260903010005 27 160 6.4 8.0 0.00 0.00 0.00 85 1012.5
20260903003506 28 171 1.6 3.2 0.00 0.00 0.00 85 1013.0
20260903003005 28 171 3.2 4.8 0.00 0.00 0.00 86 1013.1
20260903002006 28 158 8.0 9.7 0.00 0.00 0.00 84 1012.9
20260903001505 28 155 4.8 4.8 0.00 0.00 0.00 83 1012.9
20260903001005 28 196 3.2 4.8 0.00 0.00 0.00 82 1013.1
20260902235005 29 202 3.2 4.8 0.00 0.00 0.00 82 1013.3
20260902233505 30 186 3.2 4.8 0.00 0.00 0.00 78 1013.3
20260902233006 30 247 3.2 3.2 0.00 0.00 0.00 75 1013.4
20260902231005 31 268 1.6 3.2 0.00 0.00 0.00 73 1013.7
20260902230005 31 268 1.6 3.2 0.00 0.00 0.00 72 1013.5
20260902225505 31 268 1.6 3.2 0.00 0.00 0.00 71 1013.6
20260902225006 31 250 1.6 4.8 0.00 0.00 0.00 71 1013.6
20260902224505 31 247 3.2 4.8 0.00 0.00 0.00 69 1013.5
20260902224005 31 245 3.2 4.8 0.00 0.00 0.00 69 1013.4
20260902222505 31 202 6.4 11.3 0.00 0.00 0.00 67 1013.0
20260902222006 32 180 6.4 12.9 0.00 0.00 0.00 66 1013.0
20260902221005 32 200 3.2 4.8 0.00 0.00 0.00 65 1013.4
20260902215505 32 223 3.2 4.8 0.00 0.00 0.00 63 1013.5
20260902215005 32 232 3.2 4.8 0.00 0.00 0.00 60 1013.5
20260902211505 34 288 4.8 11.3 0.00 0.00 0.00 55 1013.7
20260902210005 35 292 6.4 12.9 0.00 0.00 0.00 52 1013.7